Noel, MO (64854)

12:01 PM CST on December 21, 2014 (GMT -0600)
FryeComp -2 Mi/S SWC | Change Station
CLOSE
Current Station
Personal Weather Station
Location: Gravette, AR
Elevation: 1138 ft
Nearby Weather Stations

Elev 1138 ft 36.48 °N, 94.61 °W | Updated 8 seconds ago

Overcast
Overcast
44.7 °F
Feels Like 40 °F
N
8.0
Wind Variable Wind from South
Gusts 15.0 mph

Today
High -- | Low -- °F
--% Chance of Precip.
Yesterday
High -- | Low -- °F
Precip. -- in
7:26 AM 5:06 PM
Waning Crescent, 0% visible
Pressure 30.04 in
Visibility 10.0 miles
Clouds Mostly Cloudy 1600 ft
Mostly Cloudy 2300 ft
Overcast 4400 ft
Windchill 40 °F
Dew Point 42 °F
Humidity 89%
Rainfall 0.00 in
Snow Depth Not available.
UV 1 out of 12
Pollen 3.70 out of 12
Air Quality Not available.
Flu Activity Not available.
METAR KGMJ 211735Z AUTO 16008G14KT 10SM BKN016 BKN023 OVC044 08/06 A3004 RMK AO2

More Conditions Fewer Conditions

Pressure 30.04 in
Visibility 10.0 miles
Clouds Mostly Cloudy 1600 ft
Mostly Cloudy 2300 ft
Overcast 4400 ft
Windchill 40 °F
Dew Point 42 °F
Humidity 89%
Rainfall 0.00 in
Snow Depth Not available.
UV 1 out of 12
Pollen 3.70 out of 12
Air Quality Not available.
Flu Activity Not available.
METAR KGMJ 211735Z AUTO 16008G14KT 10SM BKN016 BKN023 OVC044 08/06 A3004 RMK AO2

More Conditions Fewer Conditions

10-Day Weather Forecast

Almanac

Astronomy

Dec. 21, 2014 Rise Set
Actual Time
Civil Twilight
Nautical Twilight
Astronomical Twilight
Moon
Length of Visible Light
Length of Day
Tomorrow will be .
, % of the Moon is Illuminated

Today's Extremes

State Highs State Lows

Community

WunderPhotos

Upload Photos

1,779,438 photos uploaded!

WunderBlogs® & News

Nearby

Air Quality

  Air Quality AQ Index Pollutant
Not available.

Snow Depth

Station Depth Elevation

Earthquake Activity

City Distance Mag. Time & Date
Minimum magnitude displayed is 2.5.

Coastal Water Temperatures

Place Temperature

Nearby Weather Stations